Weather History for Fort Myers Airport, FL

Change the Weather History Date:

Monday, April 28, 2014

  Actual Average Record
Temperature  
Mean Temperature 78 °F -  
Max Temperature 90 °F 85 °F 93 °F (1944)
Min Temperature 68 °F 62 °F 51 °F (1977)
Cooling Degree Days 14    
Growing Degree Days 28 (Base 50)    
Moisture  
Dew Point 66 °F    
Average Humidity 66    
Maximum Humidity 88    
Minimum Humidity 42    
Precipitation  
Precipitation 0.00 in - - ()
Sea Level Pressure  
Sea Level Pressure 29.92 in    
Wind  
Wind Speed 7 mph (South)    
Max Wind Speed 17 mph    
Max Gust Speed -    
Visibility 10 miles    
Events Rain , Thunderstorm    
Averages and records for this station are not official NWS values.
T = Trace of Precipitation, MM = Missing Value Source: NWS Daily Summary

Daily Weather History Graph

Daily Weather History Graph

Search for Another Location

Airport:

Trip Planner

Search our weather history database for the weather conditions in past years. The results will help you decide how hot, cold, wet, or windy it might be!

Date:

Astronomy

Apr. 28, 2014 Rise Set
Actual Time 6:51 AM EDT 7:57 PM EDT
Civil Twilight 6:27 AM EDT 8:22 PM EDT
Nautical Twilight 5:58 AM EDT 8:50 PM EDT
Astronomical Twilight 5:29 AM EDT 9:20 PM EDT
Moon 6:23 AM EDT (4/28) 7:37 PM EDT (4/28)
Length of Visible Light 13h 54m
Length of Day
13h 06m
Waning Crescent, 0% of the Moon is Illuminated
Apr 28
Waning Crescent
Apr 29
New
May 6
First Quarter
May 14
Full
May 21
Last Quarter

Hourly Weather History & Observations

Time (EDT) Temp. Heat Index Dew Point Humidity Pressure Visibility Wind Dir Wind Speed Gust Speed Precip Events Conditions
12:53 AM 75.0 °F - 66.0 °F 73% 29.99 in 10.0 mi SE 5.8 mph - N/A   Clear
1:53 AM 73.4 °F - 64.4 °F 73% 29.97 in 10.0 mi SE 3.5 mph - N/A   Clear
2:53 AM 71.1 °F - 64.9 °F 81% 29.95 in 10.0 mi Calm Calm - N/A   Clear
3:53 AM 69.8 °F - 64.4 °F 83% 29.93 in 10.0 mi SE 3.5 mph - N/A   Clear
4:53 AM 70.0 °F - 64.9 °F 84% 29.93 in 10.0 mi Calm Calm - N/A   Clear
5:53 AM 68.0 °F - 64.4 °F 88% 29.94 in 10.0 mi SE 3.5 mph - N/A   Clear
6:53 AM 68.0 °F - 64.0 °F 87% 29.95 in 9.0 mi North 3.5 mph - N/A   Clear
7:53 AM 68.0 °F - 64.0 °F 87% 29.96 in 6.0 mi East 4.6 mph - N/A   Clear
8:53 AM 75.0 °F - 68.0 °F 79% 29.96 in 10.0 mi SSE 5.8 mph - N/A   Clear
9:53 AM 79.0 °F - 71.1 °F 77% 29.97 in 10.0 mi SE 6.9 mph - N/A   Clear
10:53 AM 82.9 °F 86.5 °F 69.1 °F 63% 29.97 in 10.0 mi South 12.7 mph - N/A   Clear
11:53 AM 84.9 °F 87.6 °F 66.9 °F 55% 29.95 in 9.0 mi South 8.1 mph - N/A   Clear
12:53 PM 88.0 °F 89.3 °F 64.0 °F 45% 29.93 in 10.0 mi South 10.4 mph - N/A   Clear
1:53 PM 88.0 °F 91.4 °F 68.0 °F 51% 29.91 in 10.0 mi SW 10.4 mph - N/A   Clear
2:53 PM 89.1 °F 90.0 °F 63.0 °F 42% 29.91 in 10.0 mi SSE 8.1 mph - N/A   Clear
3:53 PM 88.0 °F 92.1 °F 69.1 °F 53% 29.89 in 10.0 mi WSW 13.8 mph - N/A   Clear
4:53 PM 87.8 °F 92.6 °F 69.8 °F 55% 29.89 in 10.0 mi SW 16.1 mph - N/A   Clear
5:25 PM 87.1 °F 89.9 °F 66.9 °F 51% 29.89 in 10.0 mi SW 17.3 mph - N/A Thunderstorm Partly Cloudy
5:42 PM 87.1 °F 90.6 °F 68.0 °F 53% 29.88 in 10.0 mi WSW 13.8 mph - N/A   Partly Cloudy
5:50 PM 86.0 °F 89.4 °F 68.0 °F 55% 29.88 in 10.0 mi WSW 13.8 mph - N/A Thunderstorm Scattered Clouds
6:24 PM 84.2 °F 88.4 °F 69.8 °F 62% 29.89 in 10.0 mi SW 11.5 mph - N/A   Mostly Cloudy
6:32 PM 84.9 °F 88.2 °F 68.0 °F 57% 29.89 in 10.0 mi SW 12.7 mph - N/A Thunderstorm Overcast
6:53 PM 84.0 °F 87.8 °F 69.1 °F 61% 29.88 in 10.0 mi SW 10.4 mph - N/A Thunderstorm Overcast
7:28 PM 82.0 °F 84.9 °F 68.0 °F 62% 29.90 in 10.0 mi SE 10.4 mph - N/A Thunderstorm Thunderstorm
7:43 PM 80.1 °F 81.5 °F 63.0 °F 56% 29.88 in 10.0 mi Calm Calm - 0.00 in Rain Light Rain
7:53 PM 79.0 °F - 62.1 °F 56% 29.88 in 10.0 mi SSE 6.9 mph - 0.00 in   Scattered Clouds
8:53 PM 78.1 °F - 63.0 °F 60% 29.90 in 10.0 mi ENE 5.8 mph - N/A   Mostly Cloudy
9:53 PM 77.0 °F - 64.9 °F 66% 29.91 in 10.0 mi South 6.9 mph - N/A   Partly Cloudy
10:53 PM 77.0 °F - 66.2 °F 69% 29.92 in 10.0 mi SSE 5.8 mph - N/A   Partly Cloudy
11:53 PM 73.0 °F - 66.9 °F 81% 29.91 in 10.0 mi Calm Calm - N/A   Clear